Flag for Spain Weather past 2 weeks in Sevilla, Spain

Now
66 °F

Scattered clouds.


Feels Like: 66 °F
Forecast: 56 / 67 °F
Wind: 8 mph from Southwest

Location: Sevilla / San Pablo


UV Index: 5 (Moderate)

Visibility: N/A


Pressure: 29.86 "Hg

Humidity: 73%

Dew point: 57 °F

Location of SevillaLocation

Historic Weather in Sevilla

°F

Sevilla temperature yesterday

Maximum temperature yesterday: 75 °F (at 5:30 PM)
Minimum temperature yesterday: 57 °F (at 7:00 AM)
Average temperature yesterday: 65 °F

Past Weeks' High & Low Weather Summary

 TemperatureHumidityPressure
High90 °F (Apr 17, 6:30 PM)100% (Apr 13, 7:00 AM)30.24 "Hg (Apr 13, 7:00 AM)
Low52 °F (Apr 13, 6:00 AM)22% (Apr 8, 7:00 PM)29.83 "Hg (Apr 19, 7:00 AM)
Average68 °F65%30.02 "Hg
* Reported Apr 4 11:00 AM — Apr 19 11:30 AM, Sevilla, Weather by CustomWeather, © 2014

Note: Actual official high and low records may vary slightly from our data, if they occured in-between our weather recording intervals... More about our weather records

Advertising

Historic Weather Conditions — Data for Previous 24 hours

 ConditionsComfort  
Time TempWeatherWind HumidityBarometerVisibility
11:30 AM
Apr 19
64 °FPassing clouds.8 mph78%29.86 "HgN/A
11:00 AM64 °FPassing clouds.8 mph78%29.86 "HgN/A
10:30 AM63 °FPassing clouds.6 mph77%29.83 "HgN/A
10:00 AM63 °FScattered clouds.6 mph83%29.86 "HgN/A
9:30 AM63 °FOvercast.9 mph83%29.86 "HgN/A
9:00 AM63 °FOvercast.8 mph83%29.86 "Hg5 mi
8:30 AM63 °FOvercast.6 mph83%29.86 "Hg5 mi
8:00 AM63 °FMostly cloudy.5 mph83%29.86 "Hg5 mi
7:30 AM63 °FPassing clouds.6 mph83%29.83 "HgN/A
7:00 AM63 °FMostly cloudy.5 mph83%29.83 "HgN/A
6:30 AM63 °FOvercast.5 mph83%29.86 "HgN/A
6:00 AM63 °FOvercast.2 mph83%29.86 "HgN/A
5:30 AM63 °FOvercast.5 mph83%29.86 "HgN/A
5:00 AM63 °FOvercast.9 mph83%29.89 "HgN/A
4:30 AM63 °FOvercast.6 mph83%29.89 "HgN/A
1:00 AM63 °FPassing clouds.7 mph83%29.95 "HgN/A
12:30 AM63 °FPassing clouds.8 mph83%29.95 "HgN/A
12:00 AM63 °FPassing clouds.10 mph83%29.95 "HgN/A
11:30 PM
Apr 18
63 °FPassing clouds.12 mph83%29.95 "HgN/A
11:00 PM63 °FClear.10 mph83%29.95 "Hg10 mi
10:30 PM63 °FPassing clouds.10 mph83%29.92 "HgN/A
10:00 PM64 °FPassing clouds.7 mph78%29.92 "HgN/A
9:30 PM64 °FPassing clouds.14 mph78%29.92 "HgN/A
9:00 PM66 °FPassing clouds.12 mph73%29.92 "HgN/A
8:30 PM68 °FPassing clouds.10 mph69%29.92 "HgN/A
8:00 PM70 °FPassing clouds.14 mph64%29.92 "HgN/A
7:30 PM70 °FPassing clouds.15 mph69%29.92 "HgN/A
7:00 PM72 °FPassing clouds.14 mph65%29.92 "HgN/A
6:30 PM73 °FPassing clouds.12 mph57%29.92 "HgN/A
6:00 PM75 °FPassing clouds.8 mph57%29.92 "HgN/A
5:30 PM75 °FPassing clouds.7 mph57%29.92 "HgN/A
5:00 PM73 °FPassing clouds.7 mph61%29.95 "HgN/A
4:30 PM73 °FPartly sunny.6 mph57%29.95 "HgN/A
4:00 PM72 °FPartly sunny.5 mph65%29.95 "Hg6 mi
3:30 PM70 °FPartly sunny.9 mph69%29.98 "Hg6 mi
3:00 PM70 °FOvercast.8 mph69%29.98 "Hg5 mi
2:30 PM70 °FOvercast.7 mph69%30.01 "Hg5 mi
2:00 PM70 °FOvercast.7 mph73%30.01 "Hg5 mi
1:30 PM68 °FOvercast.7 mph73%30.01 "Hg5 mi
1:00 PM66 °FOvercast.9 mph78%30.01 "Hg5 mi
12:30 PM64 °FOvercast.9 mph83%30.01 "Hg4 mi
12:00 PM63 °FFog.10 mph88%30.04 "Hg3 mi
Weather by CustomWeather, © 2014

See weather overview